Wind_Speed
16 14 13 13 13 13 13 14 16 18 20 25 29 32 35 36 37 38 39 39 39 40 41 41 41 40 41 42 44 45 46 47 47 47 48 49 48 42 40 46 45 44 45 46
17 17 16 14 13 12 13 15 17 20 23 27 30 34 36 38 38 40 41 40 40 40 40 40 40 40 40 40 40 41 44 47 48 48 50 51 50 45 45 44 45 47 46 48
16 16 17 16 16 16 17 18 19 23 27 31 35 38 39 39 40 41 41 39 37 36 36 37 39 39 39 38 40 43 44 48 52 54 55 55 57 56 53 49 50 50 52 53
17 18 18 18 19 19 21 22 24 28 33 35 37 38 38 37 37 39 39 41 43 44 44 43 41 40 40 41 41 44 48 53 56 60 60 61 62 60 59 57 54 52 55 54
19 20 20 21 20 22 23 25 28 30 33 35 34 35 39 38 40 41 42 44 45 46 46 45 44 44 43 44 46 49 50 50 54 56 62 63 61 64 65 63 62 60 59 60
22 22 21 20 20 20 23 26 30 33 34 35 38 38 40 40 42 42 43 43 45 44 44 46 47 45 43 43 45 48 52 55 57 62 65 66 68 68 67 67 70 70 71 71
22 22 21 20 22 23 26 28 31 34 36 37 39 42 43 43 42 43 44 46 46 47 47 46 45 46 46 48 50 52 53 55 58 63 65 66 67 68 69 70 65 76 74 69
18 21 22 21 22 24 26 28 31 35 38 39 40 43 43 43 45 46 48 48 49 49 50 51 51 51 51 50 50 51 54 56 58 60 64 67 70 74 73 74 76 78 78 78
15 16 19 21 25 26 28 31 34 36 38 42 44 46 46 46 48 49 49 50 50 50 51 52 52 50 49 49 47 46 46 46 49 52 52 54 58 61 62 62 65 67 71 72
16 18 21 24 26 25 28 31 35 38 41 44 47 49 48 51 51 52 52 51 52 52 53 51 50 47 44 46 48 47 47 49 49 51 55 54 54 56 59 59 56 55 55 54
17 19 22 24 25 26 28 31 34 37 40 43 48 51 49 51 52 53 52 53 52 51 48 47 46 45 44 45 44 47 46 46 48 49 49 50 48 51 55 59 61 61 61 62
19 20 21 23 24 24 26 31 35 38 42 44 48 50 51 54 57 56 54 52 49 47 46 46 47 47 45 43 41 43 46 50 51 50 50 51 54 57 61 63 63 65 68 70
20 21 22 22 23 24 27 32 36 39 43 45 48 51 52 56 57 55 54 51 48 48 49 49 49 47 45 43 44 46 49 53 54 55 53 49 45 44 47 52 52 50 48 52
20 21 21 23 25 25 29 33 37 42 44 48 48 54 52 56 54 51 48 47 48 49 51 50 46 45 44 44 45 46 48 48 41 35 37 42 42 41 40 37 37 39 42 44
20 20 20 22 24 25 26 32 38 40 44 49 52 53 55 54 52 47 47 49 49 47 46 45 44 41 37 37 42 45 42 37 34 38 39 36 36 36 35 34 33 34 35 36
21 21 20 19 23 24 26 32 36 40 45 50 53 55 56 54 47 46 49 48 47 45 43 40 37 35 38 42 42 36 31 33 37 37 36 34 32 31 30 28 30 28 27 25
22 22 22 19 21 23 27 32 36 40 49 54 58 59 59 53 46 47 50 45 43 43 41 37 35 36 40 40 34 31 34 35 33 31 29 29 28 27 27 27 26 21 19 17
22 22 22 22 24 26 31 34 40 45 50 57 62 62 57 52 46 44 46 45 43 40 36 33 35 35 35 32 33 31 30 31 30 30 29 26 26 26 25 23 21 14 11 10
22 22 23 24 25 28 32 37 44 47 50 57 65 65 61 54 47 41 45 44 42 39 37 36 35 36 32 33 31 34 35 35 34 32 31 29 27 25 23 19 16 8 7 7
22 21 22 24 27 33 35 41 46 48 53 59 66 69 63 56 51 42 40 40 37 40 38 36 31 30 31 35 38 40 40 38 34 31 30 25 23 22 19 14 10 5 7 4
22 22 22 24 29 31 36 42 46 49 55 61 67 71 63 56 52 50 45 35 37 37 34 27 27 33 39 42 42 42 41 35 29 28 29 22 17 16 13 8 2 5 10 7
21 23 23 26 29 33 36 41 46 50 56 62 68 71 63 54 50 46 41 38 35 30 26 25 30 38 42 43 41 34 30 26 22 19 22 18 13 12 7 4 5 6 7 6
22 24 24 26 30 34 38 42 46 51 56 62 68 70 63 52 47 45 37 35 33 25 24 26 34 40 40 40 34 30 24 17 12 10 13 13 8 9 8 11 10 9 8 7
24 24 24 26 30 34 38 42 46 51 55 61 69 68 61 49 45 40 37 32 24 22 23 28 32 38 37 35 31 24 18 12 5 1 7 9 8 9 14 15 12 10 11 11
26 25 26 27 31 35 38 43 45 50 55 61 67 66 56 47 43 37 34 28 20 18 23 26 30 36 35 30 27 23 17 12 7 6 7 6 8 16 19 16 13 13 14 14
24 26 28 28 32 35 38 42 46 49 55 61 66 63 51 45 41 36 30 23 18 16 19 22 33 35 35 29 24 21 19 16 9 7 8 8 16 18 18 15 13 13 16 18
Wind_Direction
286 280 273 270 268 266 260 260 266 274 280 284 286 290 292 293 291 291 291 291 289 288 287 286 285 283 281 278 276 275 274 274 273 274 272 269 271 271 269 271 270 271 269 268
282 282 278 274 272 275 278 280 282 285 285 289 292 294 296 295 295 294 294 293 291 290 287 285 283 280 276 273 271 268 267 268 270 269 269 271 275 274 267 264 262 264 263 266
283 281 281 283 284 286 286 290 294 297 300 302 305 305 303 302 300 298 296 295 292 289 287 286 284 280 275 271 267 264 258 259 260 259 260 262 266 270 273 265 256 260 263 271
285 282 279 282 287 293 297 297 299 302 305 308 309 305 306 304 303 301 300 298 295 293 290 286 279 274 273 268 263 261 262 261 260 262 266 265 266 269 272 274 270 265 260 266
284 281 281 282 288 295 298 302 303 303 306 309 309 308 310 312 307 304 302 299 297 295 294 291 288 285 278 272 263 255 255 259 259 259 262 262 263 267 269 270 272 272 270 269
282 277 280 287 291 292 297 300 303 309 312 313 313 312 315 312 310 309 305 301 297 294 289 286 285 284 281 273 270 269 266 259 261 262 263 266 266 265 265 267 268 271 272 273
280 279 282 289 294 302 307 309 313 314 315 316 317 315 314 312 313 308 303 300 299 297 295 292 288 285 282 279 274 271 267 266 263 260 258 259 262 263 264 269 268 267 270 270
268 275 285 296 303 307 307 313 318 317 317 317 316 315 313 317 313 312 309 308 306 304 301 298 295 292 288 284 281 277 275 274 272 269 266 265 264 264 265 266 265 265 271 274
292 291 298 303 307 312 316 320 317 316 315 316 318 317 322 321 316 312 312 311 308 305 301 298 296 295 292 288 285 282 279 278 276 273 273 273 271 270 271 272 272 271 271 270
304 304 305 310 312 316 318 320 320 319 321 322 322 321 326 322 318 316 315 310 306 304 302 300 299 296 291 290 288 284 283 280 275 272 275 276 276 270 272 274 271 271 272 271
299 302 306 310 314 319 322 319 316 319 324 325 324 325 323 319 315 315 312 309 307 303 300 299 297 295 293 293 288 289 289 288 284 281 277 275 274 273 272 273 273 270 268 267
297 302 305 309 313 319 317 316 319 325 327 328 323 324 322 319 317 316 312 309 305 303 303 304 302 300 296 295 294 292 290 290 290 290 288 286 285 283 282 279 275 270 267 265
298 300 304 309 312 316 321 322 325 328 329 326 324 322 323 318 318 316 314 312 307 307 304 301 299 298 294 292 291 288 288 288 291 290 289 289 287 287 290 288 286 283 278 272
298 300 305 310 313 320 327 327 328 329 327 324 325 323 322 321 320 317 314 309 306 306 303 302 301 299 295 292 291 292 294 296 295 291 292 292 289 291 295 293 291 289 285 281
296 296 303 308 313 323 329 326 327 329 328 327 326 327 325 325 323 319 313 311 312 309 304 300 299 298 296 295 297 300 301 296 294 294 296 295 292 298 296 291 294 295 292 288
293 295 301 308 312 321 323 322 330 335 334 331 331 332 329 327 327 323 317 315 314 312 310 307 304 302 303 303 302 301 296 297 297 296 294 294 292 299 298 297 299 299 301 297
292 296 302 307 308 313 318 328 332 336 337 337 336 333 331 329 329 325 318 321 318 318 316 314 312 309 305 302 302 303 301 299 301 302 301 298 295 299 301 301 300 305 308 313
291 297 302 307 312 316 324 328 330 333 336 340 338 335 332 329 331 328 321 323 323 321 317 315 311 309 307 304 305 305 302 299 298 301 300 299 306 299 301 300 303 302 309 322
291 297 301 305 307 313 320 327 331 331 336 337 338 336 334 332 332 332 327 327 327 325 325 325 320 317 314 311 311 307 302 298 296 296 295 291 296 299 298 300 302 277 280 300
289 293 298 301 307 314 320 326 329 331 334 334 336 337 336 335 332 336 332 329 327 324 326 327 328 324 320 316 312 306 301 297 290 285 288 289 285 292 294 299 300 228 239 248
286 291 295 297 301 310 318 325 328 332 334 334 337 337 336 336 334 335 335 329 325 325 327 330 331 332 326 319 314 308 303 300 285 280 271 275 274 285 284 289 272 199 215 219
286 289 293 295 300 308 316 322 327 332 334 334 338 337 336 334 335 333 331 329 328 331 330 331 336 332 327 324 320 316 312 299 288 278 259 256 261 267 254 198 172 173 191 191
285 290 295 296 301 307 315 323 325 333 332 333 338 338 334 335 334 332 331 330 331 334 338 337 338 337 335 336 332 329 328 315 315 269 237 221 231 232 193 162 152 143 131 126
281 288 289 294 297 304 313 322 326 331 331 334 338 336 335 336 333 334 332 333 333 340 345 347 348 350 347 345 347 346 346 350 351 164 185 190 198 187 163 158 154 139 126 121
282 287 291 293 298 305 316 321 328 331 330 336 337 335 337 335 335 334 334 336 338 348 358 357 355 353 356 356 357 4 15 25 44 93 132 158 164 158 156 159 152 132 130 124
281 286 291 296 301 308 319 321 329 330 331 336 336 336 337 334 336 335 335 338 346 355 357 3 4 1 5 5 5 10 17 28 49 84 116 136 147 148 152 155 143 130 128 127
Height
5878 5879 5878 5878 5877 5877 5876 5876 5875 5874 5874 5872 5870 5869 5867 5864 5860 5856 5853 5851 5848 5846 5843 5840 5838 5836 5834 5833 5831 5829 5827 5825 5823 5822 5821 5820 5820 5820 5818 5815 5812 5810 5810 5810
5876 5874 5873 5873 5872 5873 5873 5872 5872 5871 5869 5868 5865 5863 5859 5856 5852 5848 5844 5841 5838 5835 5833 5830 5826 5824 5822 5820 5818 5816 5815 5813 5811 5809 5808 5807 5807 5806 5805 5802 5799 5798 5798 5797
5871 5871 5869 5868 5868 5868 5868 5868 5867 5866 5862 5860 5857 5853 5849 5847 5843 5839 5835 5830 5827 5825 5823 5820 5815 5813 5810 5808 5806 5803 5800 5798 5797 5794 5792 5791 5791 5790 5790 5790 5789 5788 5788 5788
5867 5866 5865 5864 5864 5864 5863 5862 5861 5859 5856 5853 5850 5846 5841 5838 5834 5830 5825 5820 5815 5811 5808 5806 5804 5802 5800 5797 5795 5793 5790 5787 5785 5783 5781 5781 5779 5778 5777 5777 5777 5776 5776 5775
5864 5862 5862 5861 5861 5860 5859 5857 5855 5853 5850 5846 5842 5838 5833 5829 5823 5819 5815 5809 5804 5800 5796 5792 5789 5786 5785 5784 5782 5780 5777 5775 5772 5770 5766 5764 5763 5762 5763 5763 5762 5761 5762 5763
5859 5858 5858 5858 5857 5857 5855 5853 5849 5846 5842 5839 5834 5830 5825 5819 5814 5809 5803 5798 5793 5789 5785 5781 5777 5773 5771 5768 5765 5763 5761 5759 5757 5755 5752 5750 5748 5747 5748 5748 5747 5747 5747 5748
5854 5853 5854 5855 5853 5851 5848 5846 5843 5839 5834 5830 5825 5821 5815 5809 5804 5798 5792 5786 5781 5776 5772 5768 5765 5760 5756 5752 5749 5747 5744 5741 5738 5737 5735 5733 5730 5728 5728 5727 5728 5730 5729 5729
5850 5850 5849 5849 5848 5846 5843 5840 5836 5831 5827 5823 5818 5813 5806 5801 5792 5785 5778 5773 5767 5762 5757 5752 5748 5744 5741 5737 5733 5729 5725 5723 5719 5718 5716 5714 5712 5711 5710 5709 5710 5711 5709 5708
5847 5846 5844 5843 5841 5840 5835 5832 5829 5824 5820 5815 5809 5801 5794 5787 5780 5773 5767 5760 5754 5748 5743 5737 5731 5727 5722 5718 5715 5711 5709 5706 5702 5700 5697 5696 5694 5692 5691 5691 5690 5690 5688 5687
5843 5841 5838 5836 5835 5833 5830 5826 5821 5816 5811 5805 5797 5789 5784 5775 5767 5761 5755 5748 5741 5735 5728 5722 5717 5712 5708 5703 5700 5697 5693 5690 5687 5684 5682 5680 5678 5677 5675 5673 5671 5669 5668 5666
5837 5836 5834 5831 5829 5827 5824 5819 5815 5811 5806 5798 5789 5782 5774 5767 5759 5752 5744 5736 5728 5721 5715 5710 5704 5699 5694 5690 5686 5682 5678 5673 5670 5667 5666 5663 5662 5660 5657 5655 5652 5651 5650 5648
5832 5830 5828 5827 5824 5822 5819 5814 5809 5803 5797 5790 5781 5778 5767 5757 5748 5741 5732 5724 5715 5708 5702 5696 5690 5685 5681 5676 5673 5668 5665 5659 5655 5651 5648 5646 5644 5641 5637 5633 5630 5627 5625 5624
5827 5825 5823 5821 5820 5817 5812 5807 5801 5796 5790 5783 5775 5767 5759 5747 5738 5728 5719 5710 5701 5695 5689 5683 5678 5673 5668 5665 5660 5655 5651 5645 5642 5637 5633 5629 5626 5622 5618 5613 5608 5604 5601 5599
5822 5820 5818 5816 5812 5810 5805 5799 5794 5789 5783 5775 5768 5759 5748 5737 5727 5717 5708 5699 5692 5685 5675 5669 5665 5661 5656 5652 5647 5642 5638 5631 5626 5623 5620 5617 5613 5610 5605 5599 5594 5589 5586 5583
5817 5815 5813 5810 5806 5803 5800 5794 5790 5784 5777 5768 5760 5749 5738 5727 5717 5705 5695 5685 5679 5673 5666 5659 5653 5650 5646 5641 5636 5631 5625 5621 5617 5614 5609 5605 5602 5598 5594 5589 5584 5580 5575 5570
5811 5809 5808 5806 5801 5799 5796 5790 5785 5778 5769 5760 5750 5740 5726 5715 5705 5694 5684 5676 5668 5661 5655 5649 5644 5640 5636 5630 5625 5620 5616 5612 5608 5604 5600 5596 5592 5589 5584 5580 5576 5571 5567 5561
5806 5804 5802 5801 5797 5794 5791 5784 5776 5770 5760 5750 5739 5729 5716 5704 5696 5685 5671 5666 5658 5651 5644 5639 5635 5630 5625 5620 5615 5611 5606 5601 5598 5594 5591 5587 5583 5580 5576 5572 5569 5565 5561 5557
5800 5798 5796 5793 5790 5787 5782 5776 5769 5762 5753 5742 5730 5719 5707 5696 5688 5677 5664 5654 5648 5641 5636 5632 5626 5622 5616 5611 5606 5601 5597 5593 5589 5586 5583 5580 5577 5574 5570 5567 5563 5561 5558 5555
5794 5792 5789 5786 5783 5781 5776 5769 5762 5754 5747 5735 5725 5712 5699 5688 5679 5672 5657 5648 5639 5632 5627 5623 5617 5612 5606 5601 5596 5592 5587 5583 5580 5577 5575 5573 5570 5568 5565 5562 5559 5558 5556 5555
5788 5787 5785 5780 5776 5771 5767 5761 5754 5746 5738 5728 5717 5702 5690 5678 5667 5664 5654 5642 5635 5627 5620 5615 5609 5604 5599 5593 5587 5580 5575 5571 5569 5567 5565 5565 5563 5562 5560 5558 5556 5555 5555 5555
5783 5781 5779 5775 5770 5768 5761 5755 5747 5741 5734 5720 5708 5694 5682 5671 5661 5650 5644 5639 5631 5621 5615 5611 5605 5598 5591 5583 5574 5567 5561 5556 5555 5555 5555 5557 5557 5557 5555 5554 5553 5553 5554 5556
5777 5775 5774 5770 5765 5762 5756 5750 5742 5734 5723 5712 5701 5687 5674 5665 5656 5647 5638 5630 5623 5618 5612 5607 5601 5593 5583 5572 5563 5554 5548 5544 5542 5543 5545 5549 5551 5552 5552 5552 5553 5553 5555 5555
5772 5770 5768 5765 5760 5755 5749 5743 5735 5727 5718 5707 5695 5681 5668 5659 5650 5641 5633 5627 5619 5614 5609 5603 5596 5586 5575 5564 5554 5547 5541 5537 5536 5535 5538 5543 5546 5548 5550 5552 5553 5555 5557 5558
5765 5764 5762 5759 5755 5750 5744 5738 5730 5721 5711 5700 5688 5675 5662 5653 5644 5637 5629 5622 5615 5611 5606 5600 5592 5581 5571 5561 5551 5544 5539 5535 5534 5534 5537 5540 5543 5546 5549 5552 5555 5558 5560 5562
5759 5757 5756 5753 5749 5745 5738 5731 5724 5715 5705 5694 5682 5669 5657 5647 5639 5632 5625 5618 5612 5608 5603 5597 5588 5580 5570 5561 5554 5547 5542 5539 5537 5537 5539 5541 5544 5547 5551 5554 5557 5561 5563 5565
5753 5751 5749 5747 5743 5739 5734 5726 5719 5709 5699 5688 5676 5664 5653 5642 5635 5628 5620 5614 5610 5606 5602 5596 5588 5581 5572 5564 5557 5551 5546 5543 5542 5541 5542 5544 5547 5551 5555 5557 5560 5565 5567 5570